Hourly Data Report for October 18, 2013

All times are specified in Local Standard Time (LST). Add 1 hour to adjust for Daylight Saving Time where and when it is observed.

KITCHENER/WATERLOO
ONTARIO

43°27'39.000" N
80°22'43.000" W
321.60 m
6144239
71368
YKF

Download Data

Hourly Data (October 2013)
Hourly Data Report for October 18, 2013
Temp Definition
°C
Dew Point Temp Definition
°C
Rel Hum Definition
%
Wind Dir Definition
10's deg

Wind Spd Definition
km/h
Visibility Definition
km
Stn Press Definition
kPa
Hmdx Definition


Wind Chill Definition


Weather Definition


TIME
00:00 Legend Double Dagger 9.0 7.6 91 24 18 16.1 96.87     LegendNANA
01:00 Legend Double Dagger 9.1 7.7 91 24 18 16.1 96.89     LegendNANA
02:00 Legend Double Dagger 9.1 7.8 91 24 18 9.7 96.90     LegendNANA
03:00 Legend Double Dagger 9.1 8.0 93 25 24 11.3 96.91     LegendNANA
04:00 Legend Double Dagger 7.7 6.7 93 27 21 9.7 97.04     LegendNANA
05:00 Legend Double Dagger 7.8 5.9 88 26 24 16.1 97.09     LegendNANA
06:00 Legend Double Dagger 6.2 4.4 88 24 17 16.1 97.14     LegendNANA
07:00 Legend Double Dagger 5.6 4.4 92 24 21 16.1 97.22     LegendNANA
08:00 Legend Double Dagger 6.7 5.2 90 25 24 16.1 97.30     LegendNANA
09:00 Legend Double Dagger 8.9 6.2 83 25 22 16.1 97.35     LegendNANA
10:00 Legend Double Dagger 10.1 6.2 77 24 28 16.1 97.39     LegendNANA
11:00 Legend Double Dagger 10.6 5.4 70 24 26 16.1 97.39     LegendNANA
12:00 Legend Double Dagger 11.2 4.4 63 25 21 16.1 97.37     LegendNANA
13:00 Legend Double Dagger 12.7 4.5 57 26 26 16.1 97.31     LegendNANA
14:00 Legend Double Dagger 12.5 3.8 55 25 21 16.1 97.30     LegendNANA
15:00 Legend Double Dagger 13.6 4.1 53 25 26 16.1 97.27     LegendNANA
16:00 Legend Double Dagger 13.5 4.5 54 24 26 16.1 97.28     LegendNANA
17:00 Legend Double Dagger 12.7 4.2 56 24 17 16.1 97.28     LegendNANA
18:00 Legend Double Dagger 10.3 4.7 68 19 9 16.1 97.28     LegendNANA
19:00 Legend Double Dagger 9.7 6.8 82 20 9 16.1 97.32     LegendNANA
20:00 Legend Double Dagger 8.8 6.9 88 20 8 16.1 97.33     LegendNANA
21:00 Legend Double Dagger 8.2 6.7 90 20 11 11.3 97.34     LegendNANA
22:00 Legend Double Dagger 8.1 5.7 85 21 9 16.1 97.30     LegendNANA
23:00 Legend Double Dagger 8.8 5.5 80 25 11 16.1 97.31     LegendNANA

Notes on Data Quality.

Legend

  • E = Estimated
  • M = Missing
  • NA = Not Available
  • ‡ = Partner data that is not subject to review by the National Climate Archives
Date modified: